Location: Altadena
(34.1900°N, 118.1300°W)
Time: 02:02:57
(UTC-07:00)

ISS - Visible Passes

Search period start: 17 April 2026 00:00
Search period end: 27 April 2026 00:00
Orbit: 416 x 425 km, 51.6° (Epoch: 16 April)

Date Brightness Start Highest point End Pass type
(mag) Time Alt. Az. Time Alt. Az. Time Alt. Az.
17 Apr -2.9 04:54:48 29° S 04:56:02 44° SE 04:59:16 10° ENE visible
18 Apr -1.5 04:09:40 21° ESE 04:09:40 21° ESE 04:11:39 10° ENE visible
18 Apr -2.4 05:42:41 10° W 05:45:37 27° NW 05:48:35 10° NNE visible
19 Apr -3.3 04:57:24 36° W 04:58:16 47° NW 05:01:33 10° NE visible
20 Apr -2.5 04:12:04 41° NE 04:12:04 41° NE 04:14:22 10° NE visible
20 Apr -1.3 05:46:48 10° NW 05:48:15 12° NNW 05:49:41 10° N visible
21 Apr -0.4 03:26:39 12° ENE 03:26:39 12° ENE 03:27:00 10° ENE visible
21 Apr -1.7 04:59:37 15° WNW 05:00:45 18° NNW 05:03:08 10° NNE visible
22 Apr -1.9 04:14:08 24° N 04:14:08 24° N 04:16:16 10° NNE visible
23 Apr -0.6 03:28:35 14° NNE 03:28:35 14° NNE 03:29:12 10° NE visible
24 Apr -1.0 04:15:56 12° NNW 04:15:56 12° NNW 04:17:15 10° N visible
25 Apr -0.6 03:30:17 12° N 03:30:17 12° N 03:30:42 10° NNE visible
